Theta_e
331 329 327 323 322 321 321 320 321 322 321 320 320 319 317 315 314 313 313 311 309 308
325 324 322 322 323 321 321 323 321 321 319 318 317 317 315 313 312 311 310 309 309 307
326 325 324 324 322 320 321 320 318 317 316 316 316 315 313 311 310 308 307 307 305 304
326 325 323 321 320 319 318 316 316 315 315 313 311 310 307 305 305 304 302 303 303 304
324 322 320 318 317 316 315 314 313 313 311 310 308 304 304 304 303 302 301 302 303 303
320 318 316 315 314 313 312 311 309 308 307 306 305 303 302 302 302 301 301 301 302 302
315 315 313 312 311 310 309 306 305 304 305 306 302 301 301 300 299 298 299 300 301 304
312 311 309 308 307 306 305 305 305 305 304 303 301 300 297 297 296 296 297 299 302 303
307 305 304 303 303 304 303 303 303 303 303 301 303 298 299 297 294 295 296 297 301 303
303 303 302 303 302 301 300 299 299 299 300 301 298 297 297 298 294 295 295 298 300 300
302 301 301 300 298 296 296 296 296 297 299 300 300 296 295 296 295 294 295 297 296 297
300 299 298 296 294 294 294 295 296 297 299 300 299 296 296 295 294 293 295 295 295 296
298 297 295 294 293 295 296 297 299 299 299 299 298 296 295 295 295 293 291 292 294 297
295 294 294 293 295 296 297 297 296 294 297 295 297 294 293 293 291 290 289 291 292 296
Wind_Speed
9 5 4 5 6 5 5 4 4 4 3 2 3 2 3 2 3 4 3 4 5 3
8 9 8 9 11 6 5 4 6 4 3 3 4 4 4 3 4 4 4 5 4 3
10 10 10 10 9 9 7 6 6 4 5 5 5 6 6 4 5 5 4 5 6 5
8 10 10 10 8 8 7 6 6 6 6 6 6 7 6 6 7 7 6 6 6 6
11 11 11 9 8 8 7 6 6 6 6 6 6 7 7 7 6 7 7 7 6 6
11 10 9 7 7 7 7 6 6 6 6 6 6 7 7 7 7 7 7 6 6 7
9 8 7 7 7 7 6 6 6 6 6 6 7 7 6 6 6 6 7 6 6 6
8 8 8 8 7 6 6 5 6 5 6 5 5 4 5 5 6 6 7 6 7 7
11 8 8 7 7 7 6 5 6 6 4 4 4 4 7 7 5 6 6 8 8 5
10 9 7 6 7 8 7 6 6 6 6 5 4 5 7 8 4 6 7 8 8 7
10 9 7 8 8 6 4 5 4 6 6 5 3 6 6 9 6 7 7 6 7 9
9 6 7 7 5 3 3 4 3 4 5 6 4 3 6 8 6 7 7 8 9 9
6 6 6 4 3 3 2 3 4 5 5 8 2 1 11 10 6 8 8 9 9 11
7 5 5 4 2 4 4 5 5 6 5 7 9 8 13 14 7 7 8 7 9 8
Wind_Direction
118 123 117 122 120 113 121 146 123 110 109 83 44 37 24 350 350 8 352 331 316 325
99 102 104 95 95 102 111 86 63 62 61 24 15 6 5 20 357 348 331 336 340 321
95 100 95 88 85 79 72 58 43 34 18 4 6 13 25 11 345 7 354 12 20 351
89 85 81 76 68 69 64 51 39 22 11 9 18 16 21 4 13 37 20 6 352 344
84 74 73 67 61 60 51 36 32 20 16 13 19 10 29 44 26 26 2 340 353 331
76 72 70 71 63 56 47 26 19 24 15 5 11 57 37 38 20 10 339 335 326 308
82 85 79 70 60 52 36 37 23 13 358 353 77 57 40 20 8 344 336 315 309 315
87 77 67 57 52 50 42 25 8 357 1 33 87 47 39 20 357 329 325 315 304 336
78 69 60 48 51 45 20 360 4 20 37 37 63 71 40 25 338 326 317 312 313 317
67 64 51 49 43 32 21 17 11 358 0 28 76 58 36 360 333 324 321 313 340 339
62 57 47 47 46 22 2 351 348 3 5 4 68 72 22 356 344 335 317 341 340 323
58 53 63 54 28 350 337 306 350 359 353 2 44 60 3 355 353 330 329 349 328 323
50 68 69 56 345 304 312 335 348 1 7 347 63 343 12 7 359 356 344 328 316 310
39 62 57 9 334 344 348 19 12 355 4 29 53 70 38 20 10 351 330 322 319 310